[[{"header":{"parameterUnit":"m.s-1","parameterCategory":1,"la1":30.2991,"la2":30.254,"lo1":-89.0895,"lo2":-89.0444,"dy":0.0017,"dx":0.0017,"nx":28,"ny":28,"refTime":"2025-08-09T21:00:00:Z","depth":0,"parameterNumber":2,"parameterNumberName":"U-component_of_WINDS"},"data":[0,0,0,0,0,0,0,0,0,0,0,0,0,0,0,0,0,0,0,0,0,0,0,0,0,0,0,0,0,0,0,0,0,0,0,0,0,0,0,0,0,0,0,0,0,0,0,0,0,0,0,0,0,0,0,0,0,0,-1.2051,-1.2051,0,-1.2047,-1.2047,-1.2047,-1.1982,-1.198,-1.1978,-1.1977,-1.1976,-1.1977,-1.1979,0,0,0,0,0,0,0,0,0,0,0,0,0,-1.2005,-1.2007,-1.2051,-1.2051,-1.2051,-1.2047,-1.2047,-1.2047,-1.1982,-1.198,-1.1978,-1.1976,-1.1975,-1.1977,-1.1979,0,0,0,0,0,0,0,0,0,0,0,0,0,-1.2016,-1.2007,-1.2051,-1.2018,-1.2015,-1.2047,-1.2047,-1.2047,-1.1982,-1.198,-1.1977,-1.1975,-1.1975,-1.1977,-1.1979,-1.2043,0,0,-1.1986,-1.1987,0,0,0,0,0,0,0,0,-1.2015,-1.2018,-1.2023,-1.2021,-1.2017,-1.2012,-1.203,-1.2046,-1.1983,-1.1995,-1.1977,-1.1974,-1.199,-1.1991,-1.1996,-1.2043,-1.2043,-1.1986,-1.1988,-1.1989,-1.1989,0,0,0,0,0,0,0,-1.2015,-1.2017,-1.205,-1.2023,-1.202,-1.2004,-1.2003,-1.2033,-1.2007,-1.1994,-1.1989,-1.1989,-1.1988,-1.1994,-1.1995,-1.2043,-1.1986,-1.1988,-1.199,-1.1991,-1.2142,-1.2145,0,0,0,0,0,0,-1.2018,-1.2017,-1.205,-1.205,-1.201,-1.2007,-1.2006,-1.2016,-1.2006,-1.2002,-1.1991,-1.1986,-1.1991,-1.1993,-1.1995,-1.2069,-1.1989,-1.1991,-1.1992,-1.2139,-1.2143,-1.2145,0,0,0,0,0,0,-1.2017,-1.2022,-1.205,-1.2032,-1.2034,-1.201,-1.2023,-1.2018,-1.2023,-1.2004,-1.2,-1.2002,-1.1989,-1.1992,-1.2031,-1.2068,-1.1992,-1.1994,-1.2136,-1.214,-1.2144,-1.2218,0,0,0,0,0,0,-1.2016,-1.2022,-1.2046,-1.2033,-1.2036,-1.2086,-1.2025,-1.2019,-1.2027,-1.202,-1.2013,-1.2009,-1.1987,-1.2028,-1.2034,-1.207,-1.1996,-1.2133,-1.2138,-1.2143,-1.2212,-1.2224,-1.2234,0,0,0,0,0,-1.2015,-1.2068,-1.2047,-1.2052,-1.2065,-1.2089,-1.209,-1.2063,-1.203,-1.2054,-1.2042,-1.201,-1.2063,-1.2033,-1.2038,-1.2076,-1.213,-1.2137,-1.2142,-1.2207,-1.2221,-1.2234,0,0,0,0,0,0,-1.2087,-1.2066,-1.2043,-1.2093,-1.2093,-1.2077,-1.2107,-1.2079,-1.2089,-1.2083,-1.2049,-1.2048,-1.2093,-1.2088,-1.2055,-1.2137,-1.2091,-1.2098,-1.2138,-1.2152,-1.2162,-1.2163,-1.1998,0,0,0,0,0,-1.2109,-1.2129,-1.2109,-1.2155,-1.2156,-1.2132,-1.2141,-1.2119,-1.2119,-1.2119,-1.2109,-1.211,-1.2127,-1.2139,-1.2153,-1.2211,-1.2208,-1.2239,-1.225,-1.2259,-1.2266,-1.2295,-1.2308,-1.2165,-1.2165,-1.2165,0,0,-1.2154,-1.2145,-1.216,-1.217,-1.2167,-1.2189,-1.2132,-1.2158,-1.2174,-1.2123,-1.2159,-1.2152,-1.2151,-1.22,-1.222,-1.2197,-1.2304,-1.2266,-1.2274,-1.2276,-1.2302,-1.2316,-1.2328,-1.2169,-1.2168,-1.2168,0,0,-1.2248,-1.2243,-1.228,-1.2278,-1.2274,-1.2257,-1.2266,-1.2254,-1.2247,-1.2282,-1.2244,-1.2263,-1.2293,-1.2293,-1.2297,-1.2389,-1.2359,-1.2394,-1.2452,-1.248,-1.2492,-1.2502,-1.2534,-1.2546,-1.2401,-1.2401,-1.2401,0,-1.2305,-1.2336,-1.2303,-1.2331,-1.2336,-1.2289,-1.2326,-1.2326,-1.2328,-1.2333,-1.2306,-1.2341,-1.2338,-1.2385,-1.2407,-1.2412,-1.2421,-1.2396,-1.2492,-1.2502,-1.2511,-1.2541,-1.2554,-1.2406,-1.2405,-1.2405,-1.2404,0,-1.2406,-1.2428,-1.2458,-1.2459,-1.2468,-1.2501,-1.2473,-1.2486,-1.2463,-1.2449,-1.2485,-1.2479,-1.249,-1.25,-1.2479,-1.2544,-1.2529,-1.2498,-1.2452,-1.2529,-1.2557,-1.2569,-1.2412,-1.241,-1.2409,-1.2408,0,0,-1.2547,-1.2527,-1.2539,-1.2538,-1.2529,-1.2546,-1.2576,-1.2586,-1.2597,-1.26,-1.2624,-1.265,-1.262,-1.2625,-1.2603,-1.2628,-1.27,-1.2594,-1.2593,-1.2614,-1.2771,-1.2795,-1.2809,-1.268,-1.2682,-1.2684,-1.2771,0,-1.2637,-1.2687,-1.2657,-1.2712,-1.2731,-1.2685,-1.2711,-1.2709,-1.2696,-1.2711,-1.2697,-1.2715,-1.2675,-1.2677,-1.27,-1.2687,-1.2731,-1.268,-1.2703,-1.2705,-1.2706,-1.2824,-1.2849,-1.2932,-1.2782,-1.2784,-1.2785,0,-1.275,-1.2754,-1.281,-1.2796,-1.2803,-1.2827,-1.2833,-1.2847,-1.2843,-1.2832,-1.2836,-1.2808,-1.2837,-1.279,-1.2829,-1.2795,-1.2802,-1.2797,-1.28,-1.2802,-1.275,-1.2829,-1.2958,-1.297,-1.2802,-1.2801,-1.2799,0,-1.2847,-1.2867,-1.2903,-1.2903,-1.2888,-1.2906,-1.29,-1.2893,-1.2901,-1.2906,-1.291,-1.292,-1.2925,-1.2933,-1.2908,-1.2876,-1.295,-1.2901,-1.2942,-1.2943,-1.2961,-1.296,-1.3093,-1.2965,-1.2965,-1.2965,-1.2964,0,-1.2951,-1.2987,-1.2946,-1.2968,-1.3007,-1.2972,-1.3012,-1.3001,-1.2995,-1.3015,-1.2976,-1.2995,-1.296,-1.2976,-1.2957,-1.2992,-1.2995,-1.2987,-1.2982,-1.2991,-1.2992,-1.2996,-1.299,-1.2968,-1.2967,-1.2967,-1.2966,0,-1.3067,-1.3041,-1.3076,-1.3057,-1.3053,-1.3083,-1.3067,-1.3087,-1.307,-1.3095,-1.3099,-1.3074,-1.309,-1.3065,-1.308,-1.3066,-1.3115,-1.3101,-1.3116,-1.3112,-1.3154,-1.3151,-1.3295,-1.3312,-1.3173,-1.3174,-1.3176,0,-1.3135,-1.3161,-1.3144,-1.3153,-1.315,-1.3166,-1.3172,-1.3139,-1.3147,-1.3144,-1.3164,-1.3177,-1.3185,-1.3214,-1.3197,-1.3208,-1.3193,-1.3243,-1.3195,-1.3203,-1.3194,-1.3193,-1.3196,-1.3254,-1.3255,-1.3257,-1.3258,0,-1.3259,-1.3244,-1.3254,-1.326,-1.3268,-1.3271,-1.3272,-1.3282,-1.3247,-1.3258,-1.3274,-1.328,-1.3293,-1.3307,-1.3312,-1.3307,-1.3277,-1.3273,-1.3283,-1.3293,-1.3301,-1.3297,-1.3144,-1.327,-1.3269,-1.3268,-1.3267,-1.3267,-1.3353,-1.3374,-1.3364,-1.3377,-1.3373,-1.3374,-1.3391,-1.3375,-1.3387,-1.3394,-1.3374,-1.3394,-1.3388,-1.3393,-1.3391,-1.3406,-1.3385,-1.3399,-1.3403,-1.3407,-1.3414,-1.3297,-1.3407,-1.3407,-1.3407,-1.3406,-1.3406,0,-1.3475,-1.3466,-1.3478,-1.3478,-1.3488,-1.3456,-1.3455,-1.3465,-1.3483,-1.3479,-1.3487,-1.3505,-1.3517,-1.3501,-1.351,-1.3526,-1.3512,-1.3529,-1.3528,-1.3527,-1.3433,-1.3423,-1.354,-1.354,-1.354,-1.354,-1.354,-1.354,-1.354,-1.3573,-1.3557,-1.3587,-1.3578,-1.3596,-1.3598,-1.3598,-1.3595,-1.3616,-1.3625,-1.3613,-1.3604,-1.3612,-1.3622,-1.3617,-1.3622,-1.3645,-1.3635,-1.3547,-1.3534,-1.3522,-1.3512,-1.3646,-1.3646,-1.3728,-1.3729,-1.373]},{"header":{"parameterUnit":"m.s-1","parameterCategory":1,"la1":30.2991,"la2":30.254,"lo1":-89.0895,"lo2":-89.0444,"dy":0.0017,"dx":0.0017,"nx":28,"ny":28,"refTime":"2025-08-09T21:00:00:Z","depth":0,"parameterNumber":3,"parameterNumberName":"V-component_of_WINDS"},"data":[0,0,0,0,0,0,0,0,0,0,0,0,0,0,0,0,0,0,0,0,0,0,0,0,0,0,0,0,0,0,0,0,0,0,0,0,0,0,0,0,0,0,0,0,0,0,0,0,0,0,0,0,0,0,0,0,0,0,1.0324,1.0323,0,1.0194,1.0193,1.0191,1.0143,1.0143,1.0144,1.0144,1.0001,0.9996,0.9992,0,0,0,0,0,0,0,0,0,0,0,0,0,1.0521,1.0518,1.0324,1.0323,1.0321,1.0195,1.0193,1.0191,1.0143,1.0143,1.0144,1.0144,1.0002,0.9997,0.9992,0,0,0,0,0,0,0,0,0,0,0,0,0,1.0417,1.0516,1.0325,1.0282,1.0277,1.0195,1.0193,1.019,1.0143,1.0143,1.0144,1.0145,1.0004,0.9997,0.9991,0.9938,0,0,0.9972,0.9969,0,0,0,0,0,0,0,0,1.0423,1.041,1.029,1.0285,1.0279,1.0186,1.0209,1.0106,1.0143,1.0193,1.0144,1.0145,1.0061,1.005,1.0024,0.9932,0.9926,0.9971,0.9967,0.9965,0.9963,0,0,0,0,0,0,0,1.0431,1.0416,1.0273,1.0288,1.0282,1.0266,1.0252,1.0189,1.0125,1.0189,1.0185,1.0171,1.0058,1.003,1.002,0.9923,0.9971,0.9966,0.9962,0.9959,0.978,0.9779,0,0,0,0,0,0,1.0446,1.0422,1.0277,1.0269,1.0355,1.0262,1.0247,1.0215,1.0125,1.0112,1.0171,1.0169,1.004,1.0027,1.0015,0.9946,0.9965,0.9959,0.9955,0.9781,0.978,0.9779,0,0,0,0,0,0,1.0451,1.0434,1.0282,1.0344,1.0324,1.0258,1.0223,1.0212,1.0184,1.0112,1.0099,1.0155,1.004,1.0024,0.9958,0.9941,0.9956,0.995,0.9782,0.9781,0.9779,0.981,0,0,0,0,0,0,1.0457,1.0436,1.0418,1.0344,1.0321,1.0231,1.0222,1.0209,1.0174,1.0171,1.0093,1.0081,1.004,0.9968,0.9952,0.9932,0.9945,0.9783,0.9781,0.978,0.981,0.981,0.981,0,0,0,0,0,1.0464,1.0429,1.0417,1.04,1.0297,1.023,1.0216,1.0173,1.0173,1.0153,1.0106,1.0083,0.9946,0.9962,0.9943,0.9921,0.9784,0.9782,0.978,0.9811,0.981,0.981,0,0,0,0,0,0,1.0498,1.0419,1.0404,1.0346,1.0296,1.0222,1.0195,1.0174,1.012,1.0119,1.0064,1.0047,0.9985,0.9946,0.9966,0.9865,0.9863,0.9857,0.9893,0.9892,0.9891,0.9901,0.994,0,0,0,0,0,1.05,1.0456,1.0387,1.0342,1.0318,1.0261,1.023,1.0201,1.0146,1.0123,1.0071,1.0015,0.9959,0.9923,0.9868,0.9805,0.9786,0.978,0.978,0.978,0.9775,0.9737,0.9734,0.9772,0.9772,0.9772,0,0,1.0501,1.0452,1.0427,1.0347,1.0305,1.0257,1.0243,1.0193,1.0156,1.0114,1.005,1.001,0.9944,0.988,0.9848,0.9845,0.9761,0.9777,0.9778,0.9773,0.9735,0.9731,0.9728,0.977,0.9771,0.9771,0,0,1.0479,1.0439,1.0396,1.0355,1.0292,1.0255,1.0245,1.0175,1.0148,1.0084,1.0051,1.0004,0.991,0.9863,0.9827,0.9788,0.9764,0.9771,0.9769,0.9733,0.973,0.9727,0.9712,0.9707,0.9767,0.9767,0.9767,0,1.0487,1.0418,1.0376,1.0328,1.0293,1.0257,1.0212,1.0173,1.0094,1.0069,1.0068,0.9948,0.99,0.9824,0.9815,0.9788,0.9772,0.978,0.9734,0.9731,0.9727,0.9712,0.9707,0.9768,0.9768,0.9768,0.9768,0,1.043,1.0382,1.0355,1.0284,1.0245,1.0199,1.0148,1.0113,1.0088,1.005,0.9983,0.9926,0.9858,0.9838,0.9811,0.9757,0.9757,0.9746,0.9742,0.9726,0.971,0.9704,0.977,0.977,0.9769,0.9769,0,0,1.0425,1.0333,1.0324,1.0291,1.0219,1.0179,1.013,1.0067,1.0038,0.9984,0.994,0.9861,0.9851,0.981,0.9777,0.9746,0.9717,0.9738,0.9736,0.9735,0.9652,0.9661,0.9655,0.9702,0.97,0.9699,0.9658,0,1.0393,1.0308,1.0269,1.02,1.0153,1.0118,1.0075,1.0025,0.9988,0.994,0.9897,0.9842,0.9833,0.9808,0.9776,0.9728,0.97,0.973,0.9657,0.9655,0.9674,0.9647,0.9655,0.9619,0.9651,0.965,0.965,0,1.0343,1.0294,1.0221,1.0155,1.0134,1.0097,1.0035,0.9992,0.9933,0.9908,0.9863,0.9832,0.9776,0.9778,0.9698,0.972,0.9687,0.9659,0.9657,0.9647,0.965,0.9635,0.9606,0.96,0.964,0.9641,0.9641,0,1.0346,1.0261,1.0206,1.0179,1.0101,1.0075,1.004,0.9983,0.9947,0.9892,0.9868,0.9807,0.9772,0.9724,0.9676,0.9682,0.96,0.9598,0.9575,0.9576,0.9558,0.9559,0.9522,0.9539,0.9539,0.9539,0.9539,0,1.0313,1.0269,1.0206,1.0172,1.0121,1.0076,1.0026,0.9988,0.9937,0.9893,0.9858,0.9816,0.9757,0.9706,0.9668,0.9607,0.9592,0.9567,0.9558,0.957,0.9573,0.9547,0.9548,0.9538,0.9538,0.9538,0.9539,0,1.0307,1.0263,1.0201,1.0133,1.0115,1.008,1.002,0.9984,0.9946,0.9891,0.9875,0.9813,0.9753,0.9701,0.962,0.9594,0.953,0.9519,0.9551,0.9546,0.9525,0.9527,0.9469,0.9458,0.9484,0.9484,0.9483,0,1.0288,1.0255,1.0184,1.0154,1.0121,1.0072,1.0037,0.999,0.9954,0.9885,0.9856,0.9794,0.9742,0.9646,0.9591,0.9529,0.9515,0.9499,0.9505,0.9518,0.9513,0.9515,0.9511,0.9498,0.9498,0.9498,0.9498,0,1.026,1.024,1.0192,1.0137,1.0096,1.0049,1.0001,0.9977,0.9921,0.9881,0.9821,0.9781,0.97,0.9637,0.9569,0.9529,0.9503,0.9497,0.9488,0.9499,0.9519,0.9507,0.9549,0.9498,0.9498,0.9498,0.9498,0.9498,1.0246,1.0214,1.016,1.0107,1.0067,1.0022,0.9986,0.9944,0.9894,0.9827,0.9802,0.9739,0.9679,0.9586,0.9546,0.9494,0.949,0.9478,0.9474,0.9472,0.9473,0.9529,0.9482,0.9482,0.9482,0.9482,0.9481,0,1.0214,1.0178,1.0131,1.0066,1.0024,1.0007,0.9953,0.9918,0.9865,0.9813,0.9763,0.9693,0.9632,0.9574,0.951,0.9479,0.9465,0.9463,0.9464,0.9455,0.9481,0.9495,0.9476,0.9476,0.9476,0.9476,0.9476,0.9476,1.0193,1.0138,1.0112,1.0036,0.9998,0.994,0.991,0.9868,0.9827,0.9752,0.9702,0.9666,0.9611,0.9542,0.9485,0.9469,0.9446,0.9447,0.9428,0.9452,0.9454,0.9455,0.9467,0.9443,0.9443,0.9406,0.9406,0.9406]}]]